Home > Weather > Pembroke Pines > Past weeks

Flag for USA Weather for the Past 2 Weeks in Pembroke Pines, Florida, USA

Now
68 °F

Passing clouds.


Feels Like: 68 °F
Forecast: 66 / 82 °F
Wind: 10 mph from Northwest

Location: North Perry Airport

Current Time: May 6, 2016 at 5:36:45 AM

Latest Report: May 6, 2016 at 4:53 AM


Visibility: 10 mi

Pressure: 29.83 "Hg

Humidity: 59%

Dew Point: 53 °F

Location of Pembroke PinesLocation

Historic Weather in Pembroke Pines — Graph

°F

Pembroke Pines Temperature Yesterday

Maximum temperature yesterday: 84 °F (at 4:53 PM)
Minimum temperature yesterday: 66 °F (at 5:53 AM)
Average temperature yesterday: 75 °F

High & Low Weather Summary for the Past Weeks

 TemperatureHumidityPressure
High90 °F (May 3, 2:53 PM)96% (May 4, 6:53 AM)30.11 "Hg (May 4, 6:53 AM)
Low66 °F (Apr 24, 6:53 AM)33% (May 5, 3:53 PM)29.68 "Hg (May 4, 8:53 PM)
Average78 °F66%29.96 "Hg
* Reported Apr 21 3:53 AM — May 6 3:53 AM, Pembroke Pines, Weather by CustomWeather, © 2016

Note: Actual official high and low records may vary slightly from our data, if they occured in-between our weather recording intervals... More about our weather records

Advertising

Pembroke Pines Weather History for the Previous 24 Hours

Scroll right to see more
 ConditionsComfort  
Time TempWeatherWind HumidityBarometerVisibility
3:53 AM
Fri, May 6
69 °FPassing clouds.8 mph63%29.83 "Hg10 mi
2:53 AM70 °FClear.9 mph68%29.83 "Hg10 mi
1:53 AM72 °FClear.9 mph68%29.83 "Hg10 mi
12:53 AM74 °FOvercast.9 mph64%29.84 "Hg10 mi
11:53 PM
Thu, May 5
73 °FPassing clouds.7 mph64%29.85 "Hg10 mi
10:53 PM74 °FPassing clouds.9 mph60%29.84 "Hg10 mi
9:53 PM75 °FPassing clouds.10 mph55%29.83 "Hg10 mi
8:53 PM78 °FScattered clouds.13 mph46%29.81 "Hg10 mi
7:53 PM79 °FPassing clouds.8 mph42%29.79 "Hg10 mi
6:53 PM81 °FPartly sunny.12 mph38%29.78 "Hg10 mi
5:53 PM83 °FPartly sunny.9 mph36%29.77 "Hg10 mi
4:53 PM84 °FSunny.15 mph35%29.78 "Hg10 mi
3:53 PM83 °FSunny.N/A33%29.79 "Hg10 mi
2:53 PM82 °FSunny.14 mph34%29.80 "Hg10 mi
1:53 PM81 °FSunny.15 mph34%29.82 "Hg10 mi
12:53 PM80 °FSunny.20 mph34%29.83 "Hg10 mi
11:53 AM79 °FSunny.22 mph36%29.84 "Hg10 mi
10:53 AM76 °FSunny.18 mph50%29.84 "Hg10 mi
9:53 AM74 °FSunny.17 mph53%29.83 "Hg10 mi
8:53 AM71 °FSunny.14 mph68%29.83 "Hg10 mi
7:53 AM69 °FSunny.10 mph79%29.81 "Hg10 mi
6:53 AM67 °FPassing clouds.9 mph81%29.78 "Hg10 mi
5:53 AM66 °FClear.9 mph84%29.76 "Hg10 mi
Weather by CustomWeather, © 2016

See weather overviewHow to use our weather pages